Waarnemingen

Advertentie
Mijn weer
UFS Deutsche Bucht, Duitsland (10007): temperatuur & dauwpunt: 20.09.2017 14:00:00 - 26.09.2017 14:00:00 (CEST)UFS Deutsche Bucht, Duitsland (10007): windsnelheid & windstoten: 20.09.2017 14:00:00 - 26.09.2017 14:00:00 (CEST)UFS Deutsche Bucht, Duitsland (10007): windrichting: 20.09.2017 14:00:00 - 26.09.2017 14:00:00 (CEST)UFS Deutsche Bucht, Duitsland (10007): luchtdruk: 20.09.2017 14:00:00 - 26.09.2017 14:00:00 (CEST)UFS Deutsche Bucht, Duitsland (10007): zicht: 20.09.2017 14:00:00 - 26.09.2017 14:00:00 (CEST)UFS Deutsche Bucht, Duitsland (10007): Zonneschijnduur: 20.09.2017 14:00:00 - 26.09.2017 14:00:00 (CEST)
Datum & Tijd tt [°C] td [°C] ff [km/u] ff [kn] fx [km/u] fx [kn] dd ppp [hPa] vv [km] sd [min]
26.09.2017 14:00:00 15,5 13,1 29 16 - - OZO 1025,5 8 0
26.09.2017 13:00:00 15,2 12,8 25 14 - - O 1025,5 9 0
26.09.2017 12:00:00 15,1 12,9 22 12 - - O 1025,4 10 0
26.09.2017 11:00:00 14,9 11,8 25 14 - - O 1025,4 10 0
26.09.2017 10:00:00 15,0 12,0 25 14 - - O 1025,1 10 6
26.09.2017 09:00:00 15,0 12,4 22 12 - - O 1024,8 10 0
26.09.2017 08:00:00 14,9 12,5 29 16 - - O 1024,3 10 0
26.09.2017 07:00:00 15,1 12,8 22 12 - - OZO 1024,0 10 0
26.09.2017 06:00:00 15,1 12,7 22 12 - - OZO 1023,9 9 0
26.09.2017 05:00:00 15,0 12,5 22 12 - - OZO 1023,6 10 0
26.09.2017 04:00:00 15,1 12,6 29 16 - - O 1023,4 10 0
26.09.2017 03:00:00 15,2 12,6 32 18 - - OZO 1023,4 10 0
26.09.2017 02:00:00 15,5 13,1 32 18 - - O 1023,4 10 0
26.09.2017 01:00:00 15,5 13,2 32 18 - - O 1023,4 10 0
26.09.2017 00:00:00 15,5 13,1 32 18 - - O 1023,8 10 0
25.09.2017 23:00:00 15,6 12,8 36 19 - - O 1023,9 10 0
25.09.2017 22:00:00 15,9 13,2 36 19 47 25 O 1024,0 10 0
25.09.2017 21:00:00 16,3 13,1 40 21 - - O 1023,9 10 0
25.09.2017 20:00:00 16,7 13,1 36 19 - - O 1023,7 10 0
25.09.2017 19:00:00 17,0 13,5 32 18 - - ONO 1023,3 10 12
25.09.2017 18:00:00 16,8 13,7 25 14 - - ONO 1023,1 10 18
25.09.2017 17:00:00 16,7 13,9 22 12 - - ONO 1023,3 10 0
25.09.2017 16:00:00 16,4 14,1 22 12 - - ONO 1023,3 10 0
25.09.2017 15:00:00 15,9 13,9 29 16 - - ONO 1023,5 10 18
25.09.2017 14:00:00 15,4 13,5 22 12 - - ONO 1023,8 10 0
25.09.2017 13:00:00 15,4 13,3 30 16 - - O - 10 0
25.09.2017 12:00:00 15,5 13,4 22 12 - - O 1024,4 10 0
25.09.2017 11:00:00 15,2 13,4 25 14 - - O 1024,7 9 0
25.09.2017 10:00:00 15,3 13,4 22 12 - - O 1024,6 10 0
25.09.2017 09:00:00 15,4 13,1 25 14 - - O 1024,6 10 0
25.09.2017 08:00:00 15,5 13,2 22 12 - - O 1024,3 10 0
25.09.2017 07:00:00 15,5 13,2 22 12 - - O 1024,1 10 0
25.09.2017 06:00:00 15,7 13,8 22 12 - - O 1024,0 9 0
25.09.2017 05:00:00 15,5 13,6 25 14 - - OZO 1024,1 9 0
25.09.2017 04:00:00 15,1 13,6 25 14 - - O 1024,2 8 0
25.09.2017 03:00:00 15,0 13,7 29 16 - - O 1024,5 5 0
25.09.2017 02:00:00 15,4 13,8 29 16 - - O 1024,5 6 0
25.09.2017 01:00:00 15,9 14,3 29 16 - - O 1024,9 7 0
25.09.2017 00:00:00 16,2 14,2 32 18 - - O 1025,2 10 0
24.09.2017 23:00:00 16,2 14,1 29 16 - - O 1025,2 10 0
24.09.2017 22:00:00 16,3 14,0 32 18 - - O 1025,1 10 0
24.09.2017 21:00:00 16,2 14,0 29 16 - - O 1025,1 10 0
24.09.2017 20:00:00 16,2 14,3 22 12 - - ONO 1024,9 10 0
24.09.2017 19:00:00 15,6 14,3 18 10 - - NO 1024,7 3,8 0
24.09.2017 18:00:00 15,9 13,7 18 10 - - NO 1024,7 10 0
24.09.2017 17:00:00 15,8 13,3 14 8 - - NO 1024,7 10 0
24.09.2017 16:00:00 15,7 12,6 14 8 - - NO 1024,8 10 54
24.09.2017 15:00:00 15,7 12,2 18 10 - - NO 1024,9 0,6 60
24.09.2017 14:00:00 15,5 11,9 14 8 - - ONO 1024,9 10 60
24.09.2017 13:00:00 15,7 12,0 11 6 - - ONO 1024,9 10 60
24.09.2017 12:00:00 15,9 11,5 7 4 - - O 1024,8 10 60
24.09.2017 11:00:00 15,5 11,6 14 8 - - ONO 1024,8 10 60
24.09.2017 10:00:00 15,6 11,8 14 8 - - ONO 1024,8 10 30
24.09.2017 09:00:00 15,5 11,5 11 6 - - ONO 1024,6 10 0
24.09.2017 08:00:00 15,4 10,8 7 4 - - O 1024,2 10 0
24.09.2017 07:00:00 15,4 11,0 7 4 - - O 1024,1 10 0
24.09.2017 06:00:00 15,5 10,8 11 6 - - O 1023,8 10 0
24.09.2017 05:00:00 15,6 10,8 11 6 - - O 1023,9 10 0
24.09.2017 04:00:00 15,8 11,4 7 4 - - O 1023,9 10 0
24.09.2017 03:00:00 15,9 11,7 11 6 - - OZO 1024,0 10 0
24.09.2017 02:00:00 15,8 12,6 14 8 - - OZO 1024,1 4,9 0
24.09.2017 01:00:00 15,8 12,9 14 8 - - O 1024,2 10 0
24.09.2017 00:00:00 15,8 11,9 14 8 - - NO 1024,4 10 0
23.09.2017 23:00:00 15,7 10,7 14 8 - - NO 1024,4 10 0
23.09.2017 22:00:00 15,7 10,2 11 6 - - NNO 1024,6 10 0
23.09.2017 21:00:00 15,6 9,9 7 4 - - N 1024,7 10 0
23.09.2017 20:00:00 15,6 9,9 11 6 - - N 1024,5 10 18
23.09.2017 19:00:00 15,6 9,8 11 6 - - N 1024,4 10 60
23.09.2017 18:00:00 15,6 9,6 7 4 - - N 1024,3 10 60
23.09.2017 17:00:00 15,8 9,8 7 4 - - NNW 1024,3 10 60
23.09.2017 16:00:00 15,8 9,3 11 6 - - NW 1024,6 10 60
23.09.2017 15:00:00 15,7 9,3 11 6 - - WNW 1024,5 3,8 60
23.09.2017 14:00:00 15,8 9,7 7 4 - - WNW 1024,5 5 60
23.09.2017 13:00:00 15,7 9,8 7 4 - - WNW 1024,6 10 60
23.09.2017 12:00:00 15,8 9,7 7 4 - - WNW 1024,6 10 60
23.09.2017 11:00:00 15,7 10,0 11 6 - - WNW 1024,6 10 30
23.09.2017 10:00:00 15,7 10,4 11 6 - - WNW 1024,3 10 0
23.09.2017 09:00:00 15,8 10,6 11 6 - - WNW 1023,8 10 0
23.09.2017 08:00:00 15,9 11,0 14 8 - - WNW 1023,3 10 0
23.09.2017 07:00:00 15,9 11,0 14 8 - - WNW 1022,9 10 0
23.09.2017 06:00:00 15,9 12,0 18 10 - - WNW 1022,7 10 0
23.09.2017 05:00:00 15,9 12,0 18 10 - - WNW 1022,4 10 0
23.09.2017 04:00:00 16,1 12,2 14 8 - - W 1022,4 10 0
23.09.2017 03:00:00 16,2 11,6 14 8 - - W 1022,4 10 0
23.09.2017 02:00:00 15,3 12,8 11 6 - - W 1022,4 10 0
23.09.2017 01:00:00 15,4 12,8 14 8 - - W 1021,9 10 0
23.09.2017 00:00:00 15,8 13,1 11 6 - - W 1022,0 10 0
22.09.2017 23:00:00 15,9 13,0 7 4 - - W 1021,9 10 0
22.09.2017 22:00:00 16,4 13,2 14 8 - - Z 1021,6 9 0
22.09.2017 21:00:00 16,5 12,0 14 8 - - ZZO 1021,5 10 0
22.09.2017 20:00:00 16,4 12,2 14 8 - - ZO 1021,1 10 0
22.09.2017 19:00:00 16,5 11,8 14 8 - - ZO 1020,7 10 0
22.09.2017 18:00:00 16,3 11,2 11 6 - - OZO 1020,3 10 0
22.09.2017 17:00:00 16,4 10,2 11 6 - - ZO 1020,3 10 12
22.09.2017 16:00:00 16,3 10,5 14 8 - - ZO 1020,5 10 0
22.09.2017 15:00:00 15,9 11,1 14 8 - - ZZO 1020,4 10 0
22.09.2017 14:00:00 15,8 11,4 14 8 - - ZZO 1020,4 10 6
22.09.2017 13:00:00 15,7 11,2 11 6 - - ZZO 1020,4 10 6
22.09.2017 12:00:00 15,8 11,2 14 8 - - Z 1020,3 10 0
22.09.2017 11:00:00 16,1 11,1 14 8 - - ZZO 1020,3 10 0
22.09.2017 10:00:00 15,9 12,4 14 8 - - W 1020,3 9 0
22.09.2017 09:00:00 15,9 12,4 14 8 - - ZZO 1020,2 10 0
22.09.2017 08:00:00 16,0 12,1 14 8 - - ZZO 1020,0 9 0
22.09.2017 07:00:00 16,0 11,8 14 8 - - ZO 1019,8 9 0
22.09.2017 06:00:00 16,0 11,9 14 8 - - ZO 1019,9 9 0
22.09.2017 05:00:00 16,2 11,6 14 8 - - ZZO 1019,9 10 0
22.09.2017 04:00:00 16,2 12,0 14 8 - - ZZO 1019,7 10 0
22.09.2017 03:00:00 16,2 12,7 14 8 - - ZZO 1020,0 10 0
22.09.2017 02:00:00 16,4 12,8 18 10 - - ZZO 1020,3 10 0
22.09.2017 01:00:00 16,5 13,3 22 12 - - ZZO 1020,2 10 0
22.09.2017 00:00:00 16,5 13,6 22 12 - - ZO 1020,4 10 0
21.09.2017 23:00:00 16,6 13,0 22 12 - - ZO 1020,5 10 0
21.09.2017 22:00:00 16,7 12,5 22 12 - - ZO 1020,5 10 0
21.09.2017 21:00:00 16,7 12,0 22 12 - - ZO 1020,5 10 0
21.09.2017 20:00:00 16,5 12,7 22 12 - - ZO 1020,2 10 0
21.09.2017 19:00:00 16,3 13,0 18 10 - - ZO 1020,0 10 12
21.09.2017 18:00:00 16,4 12,6 14 8 - - ZO 1019,9 10 18
21.09.2017 17:00:00 16,2 12,5 14 8 - - ZZO 1019,8 10 60
21.09.2017 16:00:00 16,4 11,9 14 8 - - Z 1019,8 10 54
21.09.2017 15:00:00 16,1 12,2 14 8 - - Z 1019,8 10 60
21.09.2017 14:00:00 15,8 12,2 18 10 - - ZZW 1019,7 10 60
21.09.2017 13:00:00 15,8 12,3 18 10 - - ZW 1019,7 0,6 60
21.09.2017 12:00:00 15,7 12,8 22 12 - - ZW 1019,4 9 42
21.09.2017 11:00:00 15,6 13,0 25 14 - - ZW 1019,4 10 12
21.09.2017 10:00:00 15,5 13,2 29 16 - - ZW 1019,1 9 0
21.09.2017 09:00:00 15,2 13,1 29 16 - - ZW 1019,0 7 0
21.09.2017 08:00:00 15,2 13,0 25 14 - - ZW 1019,0 8 0
21.09.2017 07:00:00 15,3 12,7 32 18 - - ZW 1018,7 10 0
21.09.2017 06:00:00 15,3 12,7 29 16 - - ZW 1018,4 10 0
21.09.2017 05:00:00 15,5 12,6 32 18 - - ZW 1018,4 10 0
21.09.2017 04:00:00 15,5 12,7 29 16 - - ZZW 1018,5 10 0
21.09.2017 03:00:00 15,5 12,4 32 18 - - ZZW 1018,2 10 0
21.09.2017 02:00:00 15,5 12,7 29 16 - - ZZW 1018,2 10 0
21.09.2017 01:00:00 15,6 11,7 32 18 - - ZZW 1018,0 10 0
21.09.2017 00:00:00 15,5 11,3 32 18 - - Z 1018,1 10 0
20.09.2017 23:00:00 15,8 11,4 29 16 - - ZZW 1018,2 10 0
20.09.2017 22:00:00 16,0 11,2 25 14 - - ZW 1018,3 10 0
20.09.2017 21:00:00 16,0 9,4 22 12 - - WZW 1018,5 10 0
20.09.2017 20:00:00 16,0 9,4 22 12 - - WZW 1018,2 10 0
20.09.2017 19:00:00 15,8 9,0 25 14 - - W 1018,1 10 24
20.09.2017 18:00:00 16,2 10,1 29 16 - - W 1017,8 10 24
20.09.2017 17:00:00 16,0 10,2 29 16 - - W 1017,7 10 48
20.09.2017 16:00:00 16,0 10,0 25 14 - - W 1017,4 10 42
20.09.2017 15:00:00 15,8 10,0 29 16 - - W 1017,2 10 48
20.09.2017 14:00:00 15,6 9,7 22 12 - - W 1017,2 10 48

tt = temperatuur
td = dauwpunt
ff = windsnelheid
fx = windstoten
dd = windrichting
ppp = luchtdruk
vv = zicht
sd = Zonneschijnduur

Weerstations in de omgeving